Regional Weather Roundup
Issued by NWS Albany, NY

Home | Current Version | Previous Version | Text Only | Print | Product List | Glossary On
Versions: 1 2 3 4 5 6 7 8 9 10 11 12 13 14 15 16 17 18 19 20 21 22 23 24 25 26 27
000
ASUS41 KALY 311910
RWRALY

NEW YORK STATE HOURLY WEATHER ROUNDUP
NATIONAL WEATHER SERVICE ALBANY NY
300 PM EDT TUE MAY 31 2016

NOTE: "FAIR" INDICATES FEW OR NO CLOUDS BELOW 12,000 FEET WITH NO
SIGNIFICANT WEATHER AND/OR NO OBSTRUCTIONS TO VISIBILITY.

NYZ032-033-038>043-046>054-057>066-NYZ062>081-082-084-312000-
EAST


CITY           SKY/WX    TMP DP  RH WIND       PRES   REMARKS
ALBANY         MOSUNNY   82  50  32 NW16G29   29.92F
GLENS FALLS    MOSUNNY   82  47  29 NW7G17    29.88F
POUGHKEEPSIE   SUNNY     85  55  35 CALM      29.91F
NEWBURGH       MOSUNNY   82  59  44 SW8       29.93F
MONTGOMERY     PTSUNNY   86  55  34 VRB3      29.92F
WHITE PLAINS   MOSUNNY   83  55  38 W7        29.93F
ISLIP          MOSUNNY   76  66  71 S12       29.94S
NEW YORK CITY  PTSUNNY   83  68  60 S8        29.92F
CENTRAL PARK   MOSUNNY   83  64  52 VRB3      29.95F
$$

NYZ005>009-017-018-044>046-055-056-312000-
CENTRAL


CITY           SKY/WX    TMP DP  RH WIND       PRES   REMARKS
FULTON         SUNNY     81  47  30 W13G26    29.99S
SYRACUSE       MOSUNNY   80  47  31 W10G25    29.97S
ROME           MOSUNNY   79  48  33 W17G25    29.97R
ELMIRA         CLOUDY    85  51  31 VRB7      29.96F
BINGHAMTON     CLOUDY    77  54  44 NW6G18    30.00F
MONTICELLO     MOSUNNY   79  54  41 NW13      30.00S
$$

NYZ026>034-041>043-087-312000-
NORTH


CITY           SKY/WX    TMP DP  RH WIND       PRES   REMARKS
WATERTOWN      SUNNY     75  48  38 SW17G26   29.95S
FORT DRUM      NOT AVBL
MASSENA        MOSUNNY   78  51  38 NW13      29.90S
SARANAC LAKE   SUNNY     75  43  31 W15G22    29.92S
PLATTSBURGH    SUNNY     81  49  32 W12G18    29.86S
$$

NYZ001>004-010>016-019>021-085-312000-
WEST


CITY           SKY/WX    TMP DP  RH WIND       PRES   REMARKS
NIAGARA FALLS  PTSUNNY   82  46  28 NW16      29.99F
BUFFALO        CLOUDY    80  48  32 W10G16    30.00S
DUNKIRK        CLOUDY    79  47  32 W9        30.02F
JAMESTOWN      CLOUDY    75  52  43 NW12      30.05S
WELLSVILLE     CLOUDY    77  55  46 N13       30.05F
ROCHESTER      MOSUNNY   81  47  30 W15G21    29.98F
PENN YAN       SUNNY     80  52  37 NW13G21   29.99F
$$

             KEY
       WCI = WIND CHILL INDEX
       VSB = VISIBILITY
       HX  = HEAT INDEX
$$




USA.gov is the U.S. government's official web portal to all federal, state and local government web resources and services.